EW1107 Weather Reports


Display with metric or nautical units.
time (UTC)temp
F
wind
direction
speed
MPH
gust
MPH
rain 1hr
in
rain 24hr
in
rain mn
in
humidity
%
barometer
mb
20210125141723 33 302 11.0 25.0 0.00 0.00 0.00 91 1000.7
20210125140044 33 319 12.0 27.0 0.00 0.00 0.00 92 1000.5
20210125133052 33 321 6.0 22.0 0.00 0.00 0.00 92 1000.2
20210125131522 33 277 9.0 19.0 0.00 0.00 0.00 92 1000.1
20210125130144 33 340 10.0 24.0 0.00 0.00 0.00 92 999.9
20210125124654 33 335 10.0 22.0 0.00 0.00 0.00 92 999.8
20210125123126 33 301 9.0 24.0 0.00 0.00 0.00 92 999.8
20210125121633 32 321 9.0 23.0 0.00 0.00 0.00 92 999.7
20210125120055 32 311 4.0 23.0 0.00 0.01 0.00 92 999.8
20210125113032 32 5 6.0 20.0 0.00 0.01 0.00 92 999.8
20210125111535 33 355 8.0 18.0 0.00 0.01 0.00 92 999.8
20210125110117 33 326 6.0 22.0 0.00 0.01 0.00 92 999.7
20210125104710 33 323 10.0 21.0 0.00 0.09 0.00 92 999.6
20210125103203 33 330 9.0 19.0 0.00 0.09 0.00 91 999.7
20210125101554 33 295 6.0 22.0 0.00 0.09 0.00 91 999.7
20210125100141 33 295 5.0 19.0 0.00 0.11 0.00 92 999.6
20210125094559 33 305 11.0 17.0 0.00 0.11 0.00 91 999.6
20210125093122 33 266 6.0 13.0 0.00 0.11 0.00 91 999.5
20210125091557 33 294 7.0 15.0 0.00 0.11 0.00 91 999.5
20210125084745 33 308 2.0 13.0 0.00 0.11 0.00 92 999.1
20210125083107 33 306 6.0 14.0 0.00 0.11 0.00 93 999.3
20210125081657 33 306 0.0 9.0 0.00 0.11 0.00 93 999.3
20210125080140 33 338 2.0 13.0 0.00 0.11 0.00 93 999.3
20210125074542 33 295 1.0 10.0 0.00 0.11 0.00 92 999.0
20210125073040 33 286 1.0 9.0 0.00 0.11 0.00 92 999.0
20210125071532 33 300 1.0 9.0 0.00 0.11 0.00 91 999.0
20210125070025 33 319 3.0 10.0 0.00 0.11 0.00 91 998.9
20210125064641 32 355 7.0 19.0 0.00 0.11 0.00 91 998.7
20210125063233 33 304 3.0 13.0 0.00 0.11 0.00 92 998.6
20210125061630 33 315 3.0 12.0 0.00 0.11 0.00 91 998.6
20210125060057 33 317 6.0 19.0 0.00 0.11 0.00 92 998.4
20210125053052 33 316 6.0 14.0 0.00 0.11 0.00 93 998.5
20210125051527 33 319 2.0 12.0 0.00 0.11 0.00 93 998.4
20210125050021 32 276 5.0 11.0 0.00 0.11 0.00 94 998.3
20210125044647 32 280 0.0 9.0 0.00 0.11 0.00 93 998.3
20210125043210 32 250 0.0 4.0 0.00 0.11 0.00 93 998.4
20210125041629 32 221 3.0 6.0 0.00 0.11 0.00 92 998.2
20210125034559 32 218 2.0 6.0 0.00 0.11 0.00 91 998.1
20210125033124 32 215 4.0 8.0 0.00 0.11 0.00 91 997.9
20210125024524 33 209 3.0 8.0 0.00 0.11 0.00 91 997.6
20210125023128 33 192 3.0 10.0 0.00 0.11 0.00 91 997.6
20210125021726 33 195 3.0 15.0 0.00 0.11 0.00 91 997.6
20210125020130 33 232 0.0 8.0 0.00 0.11 0.00 91 997.5
20210125014636 33 213 3.0 10.0 0.00 0.11 0.00 91 997.5
20210125013057 33 227 3.0 10.0 0.00 0.11 0.00 91 997.5
20210125011544 33 186 7.0 15.0 0.00 0.11 0.00 91 997.6
20210125010053 33 200 7.0 17.0 0.00 0.11 0.00 91 997.4
20210125004523 33 231 3.0 11.0 0.00 0.11 0.00 91 997.3
20210125003026 33 212 4.0 13.0 0.00 0.11 0.00 91 997.2
20210125001618 33 212 5.0 12.0 0.00 0.11 0.00 91 997.1
20210125000156 34 223 6.0 18.0 0.00 0.12 0.00 91 996.9
20210124233138 34 229 8.0 15.0 0.00 0.12 0.00 91 996.8
20210124231558 34 227 5.0 14.0 0.00 0.12 0.00 91 996.8
20210124230050 34 223 8.0 18.0 0.00 0.12 0.12 90 996.8
20210124224528 34 203 6.0 17.0 0.00 0.12 0.12 90 996.8
20210124221518 33 217 5.0 15.0 0.00 0.12 0.12 91 996.9
20210124220320 33 209 7.0 17.0 0.00 0.12 0.12 91 996.8
20210124214720 33 206 8.0 18.0 0.00 0.12 0.12 91 996.6
20210124213136 33 196 6.0 13.0 0.00 0.12 0.12 91 996.6
20210124211725 33 190 5.0 20.0 0.00 0.12 0.12 91 996.6
20210124210043 33 193 9.0 17.0 0.00 0.12 0.12 92 996.5
20210124204627 33 209 9.0 21.0 0.00 0.12 0.12 93 996.4
20210124203038 34 199 9.0 16.0 0.00 0.12 0.12 93 996.5
20210124201600 33 200 6.0 13.0 0.00 0.12 0.12 94 996.5
20210124200020 33 211 6.0 16.0 0.00 0.12 0.12 94 996.4
20210124194817 33 165 4.0 9.0 0.00 0.12 0.12 94 996.2
20210124193223 33 157 4.0 10.0 0.00 0.12 0.12 94 996.3
20210124191620 33 191 1.0 13.0 0.00 0.12 0.12 94 996.2
20210124190148 33 180 4.0 10.0 0.00 0.12 0.12 94 996.2
20210124184554 33 178 3.0 11.0 0.00 0.12 0.12 94 996.2
20210124181531 33 179 2.0 7.0 0.00 0.12 0.12 94 996.1
20210124180035 33 178 4.0 8.0 0.00 0.12 0.12 94 996.1
20210124174540 33 188 2.0 9.0 0.00 0.12 0.12 94 996.4
20210124173042 33 201 5.0 10.0 0.00 0.12 0.12 93 996.4
20210124171758 33 171 7.0 12.0 0.00 0.12 0.12 93 996.5
20210124170327 33 206 4.0 12.0 0.00 0.12 0.12 94 996.4
20210124164712 33 215 3.0 13.0 0.00 0.12 0.12 94 996.4
20210124163105 33 186 4.0 11.0 0.00 0.12 0.12 94 996.4
20210124161602 33 202 3.0 9.0 0.00 0.12 0.12 94 996.4
20210124160107 33 221 1.0 10.0 0.00 0.12 0.12 94 996.1
20210124154551 33 236 5.0 17.0 0.00 0.12 0.12 94 996.3
20210124153023 33 216 7.0 12.0 0.00 0.12 0.12 95 996.2
20210124151540 33 191 6.0 10.0 0.00 0.12 0.12 95 995.8
20210124150030 33 209 2.0 10.0 0.00 0.12 0.12 95 995.7
20210124144731 33 220 0.0 9.0 0.00 0.12 0.12 95 995.6
20210124143157 33 221 1.0 7.0 0.00 0.12 0.12 95 995.6